Tracking 35275 objects as of 9-Sep-2026
HD Live streaming from Space Station
objects crossing your sky now

ATLAS 5 CENTAUR DEB

Track ATLAS 5 CENTAUR DEB now!


NORAD ID: 44004
Int'l Code: 2014-055BK
Launch date: September 17, 2014
Source: United States (US)
Launch site: AIR FORCE EASTERN TEST RANGE (AFETR)

Note: This is SATELLITE DEBRIS
Your satellite tracking list
Your tracking list is empty




NASA's NSSDC Master Catalog

Two Line Element Set (TLE):
1 44004U 14055BK  21065.91709176 -.00000164  00000-0  00000+0 0  9992
2 44004  21.7227 314.5348 4840963 225.9353  82.2483  1.94624874 17679
Source of the keplerian elements: AFSPC